GW6501 Weather Reports


time (UTC)temp
C
wind
direction
speed
KPH
gust
KPH
rain 1hr
cm
rain 24hr
cm
rain mn
cm
humidity
%
barometer
mb
20260509200903 30 249 3.2 6.4 0.00 0.00 0.00 64 1010.0
20260509200004 29 274 1.6 3.2 0.00 0.00 0.00 70 1010.1
20260509195403 30 263 1.6 3.2 0.00 0.00 0.00 69 1010.4
20260509194504 29 255 1.6 4.8 0.00 0.00 0.00 67 1010.4
20260509193603 29 230 3.2 6.4 0.00 0.00 0.00 65 1010.5
20260509192703 28 232 3.2 6.4 0.00 0.00 0.00 65 1010.5
20260509192011 29 245 3.2 6.4 0.00 0.00 0.00 67 1010.5
20260509191111 30 242 1.6 4.8 0.00 0.00 0.00 66 1010.8
20260509190004 28 233 1.6 4.8 0.00 0.00 0.00 69 1010.7
20260509185403 28 232 1.6 4.8 0.00 0.00 0.00 69 1010.6
20260509184504 27 225 3.2 6.4 0.00 0.00 0.00 72 1010.8
20260509183603 27 230 3.2 4.8 0.00 0.00 0.00 72 1010.9
20260509182703 27 250 1.6 4.8 0.00 0.00 0.00 72 1011.0
20260509181803 27 222 1.6 4.8 0.00 0.00 0.00 74 1011.1
20260509180904 27 224 1.6 3.2 0.00 0.00 0.00 74 1011.0
20260509180004 27 229 0.0 3.2 0.00 0.00 0.00 76 1011.2
20260509175403 26 210 0.0 3.2 0.00 0.00 0.00 80 1011.3
20260509174503 26 222 0.0 6.4 0.00 0.00 0.00 82 1011.4
20260509173603 27 224 1.6 3.2 0.00 0.00 0.00 77 1011.7
20260509172703 26 225 0.0 3.2 0.00 0.00 0.00 78 1011.7
20260509171803 25 246 0.0 3.2 0.00 0.00 0.00 84 1011.7
20260509170903 26 217 1.6 4.8 0.00 0.00 0.00 83 1011.5
20260509170004 26 234 0.0 3.2 0.00 0.00 0.00 80 1011.5
20260509165403 26 233 0.0 3.2 0.00 0.00 0.00 82 1012.1
20260509164711 26 220 1.6 3.2 0.00 0.00 0.00 81 1012.1
20260509163603 26 231 1.6 4.8 0.00 0.00 0.00 83 1012.1
20260509162704 26 217 1.6 4.8 0.00 0.00 0.00 82 1012.3
20260509161803 25 219 1.6 4.8 0.00 0.00 0.00 83 1012.1
20260509161111 25 220 0.0 3.2 0.00 0.00 0.00 83 1012.3
20260509160004 24 197 1.6 6.4 0.00 0.00 0.00 87 1012.0
20260509155611 23 185 1.6 3.2 0.00 0.00 0.00 87 1012.1
20260509154504 24 210 0.0 3.2 0.00 0.00 0.00 88 1012.4
20260509153604 25 205 0.0 3.2 0.00 0.00 0.00 88 1012.2
20260509152703 25 212 0.0 3.2 0.00 0.00 0.00 86 1012.0
20260509152010 25 216 0.0 1.6 0.00 0.00 0.00 87 1012.0
20260509150904 25 187 0.0 1.6 0.00 0.00 0.00 88 1011.8
20260509150004 24 196 0.0 1.6 0.00 0.00 0.00 88 1011.4
20260509145403 25 202 0.0 3.2 0.00 0.00 0.00 88 1011.8
20260509144504 24 213 0.0 3.2 0.00 0.00 0.00 89 1011.5
20260509143604 23 199 0.0 1.6 0.00 0.00 0.00 90 1011.4
20260509142704 23 217 1.6 6.4 0.00 0.00 0.00 93 1011.4
20260509142011 22 302 3.2 8.0 0.00 0.00 0.00 95 1011.5
20260509140903 23 189 1.6 6.4 0.00 0.00 0.00 95 1011.8
20260509140005 23 210 1.6 4.8 0.00 0.00 0.00 95 1011.8
20260509135403 23 188 3.2 11.3 0.00 0.03 0.00 96 1011.4
20260509134503 22 181 4.8 9.7 0.00 0.10 0.00 97 1011.7
20260509133811 22 163 1.6 6.4 0.00 0.13 0.00 98 1011.9
20260509132703 22 293 3.2 6.4 0.00 0.23 0.00 99 1011.7
20260509131803 22 177 1.6 6.4 0.00 0.25 0.00 99 1011.4
20260509130903 22 244 1.6 6.4 0.00 0.46 0.00 99 1011.8
20260509130004 22 83 3.2 4.8 0.00 0.97 0.00 99 1011.7
20260509125403 22 81 3.2 4.8 0.00 1.07 0.00 99 1011.7
20260509124711 22 54 1.6 6.4 0.00 1.14 0.00 99 1011.8
20260509123603 22 25 3.2 6.4 0.00 1.37 0.00 99 1011.4
20260509122704 22 20 3.2 6.4 0.00 1.42 0.00 99 1011.4
20260509121804 22 125 1.6 6.4 0.00 1.42 0.00 99 1012.0
20260509121111 22 175 3.2 8.0 0.00 1.42 0.00 99 1012.0
20260509120004 22 215 1.6 6.4 0.00 1.42 0.00 99 1011.4
20260509115611 22 194 3.2 6.4 0.00 1.42 0.00 99 1011.4
20260509114711 22 358 1.6 6.4 0.00 1.42 0.00 99 1011.8
20260509113811 22 100 3.2 6.4 0.00 1.42 0.00 99 1011.4
20260509112703 22 188 0.0 4.8 0.00 1.42 0.00 99 1011.3
20260509111804 22 224 0.0 1.6 0.00 1.42 0.00 98 1011.1
20260509110903 22 217 0.0 1.6 0.00 1.42 0.00 98 1010.9
20260509110004 22 165 0.0 1.6 0.00 1.42 0.00 98 1010.9
20260509105611 22 185 0.0 1.6 0.00 1.42 0.00 98 1010.9
20260509104711 22 231 0.0 1.6 0.00 1.42 0.00 98 1010.6
20260509103603 22 0 0.0 0.0 0.00 1.42 0.00 98 1010.7
20260509102911 22 0 0.0 0.0 0.00 1.42 0.00 98 1010.8
20260509101804 22 135 0.0 1.6 0.00 1.42 0.00 97 1010.7
20260509100903 22 138 0.0 1.6 0.00 1.42 0.00 97 1010.9
20260509100005 22 125 0.0 1.6 0.00 1.42 0.00 97 1011.1
20260509095403 22 125 0.0 1.6 0.00 1.42 0.00 97 1011.0
20260509094503 22 0 0.0 0.0 0.00 1.42 0.00 97 1011.2
20260509093603 22 0 0.0 0.0 0.00 1.42 0.00 97 1011.3
20260509092910 22 224 0.0 1.6 0.00 1.42 0.00 97 1011.4
20260509092011 22 225 0.0 1.6 0.00 1.42 0.00 97 1011.1
20260509090903 22 135 0.0 1.6 0.00 1.42 0.00 97 1010.8
20260509090004 22 121 0.0 1.6 0.00 1.42 0.00 97 1010.7
20260509085611 22 112 0.0 1.6 0.00 1.42 0.00 97 1011.0
20260509084711 22 0 0.0 0.0 0.00 1.42 0.00 96 1011.3
20260509083603 22 0 0.0 0.0 0.00 1.42 0.00 96 1011.3
20260509082703 22 0 0.0 0.0 0.00 1.42 0.00 96 1011.4
20260509082011 22 0 0.0 0.0 0.00 1.42 0.00 96 1011.3
20260509080903 22 0 0.0 0.0 0.00 1.42 0.00 96 1011.3
20260509080004 22 0 0.0 0.0 0.00 1.42 0.00 96 1011.5
20260509075403 22 0 0.0 0.0 0.00 1.42 0.00 96 1011.2
20260509074503 22 157 0.0 1.6 0.00 1.42 0.00 96 1011.4
20260509073603 22 134 0.0 1.6 0.00 1.42 0.00 96 1011.5
20260509072703 22 157 0.0 1.6 0.00 1.42 0.00 96 1011.7
20260509071804 22 198 0.0 1.6 0.00 1.42 0.00 96 1011.4
20260509070904 22 169 0.0 3.2 0.00 1.42 0.00 96 1011.4
20260509070211 22 174 0.0 3.2 0.00 1.42 0.00 96 1011.4
20260509065404 22 170 1.6 6.4 0.00 1.42 0.00 96 1011.3
20260509064503 22 177 0.0 4.8 0.00 1.42 0.00 96 1011.4
20260509063603 22 196 1.6 4.8 0.00 1.42 0.00 96 1011.4
20260509062703 22 194 0.0 4.8 0.00 1.42 0.00 96 1011.4
20260509061803 22 204 1.6 4.8 0.00 1.42 0.00 95 1011.5
20260509060903 22 197 0.0 3.2 0.00 1.42 0.00 95 1011.7
20260509060005 22 197 0.0 3.2 0.00 1.42 0.00 94 1011.5
20260509055404 22 133 0.0 3.2 0.00 1.42 0.00 94 1011.5
20260509054503 22 127 0.0 3.2 0.00 1.42 0.00 95 1011.4
20260509053603 22 176 1.6 6.4 0.00 1.42 0.00 95 1011.4
20260509052704 22 188 0.0 3.2 0.00 1.42 0.00 94 1011.2
20260509051804 22 163 0.0 4.8 0.00 1.42 0.00 94 1011.4
20260509050904 22 163 0.0 3.2 0.00 1.42 0.00 95 1011.4
20260509050005 22 167 0.0 1.6 0.00 1.42 0.00 94 1011.5
20260509045403 22 195 0.0 3.2 0.00 1.42 1.42 94 1011.7
20260509044504 22 191 0.0 3.2 0.00 1.42 1.42 94 1011.8
20260509043604 21 183 0.0 4.8 0.00 1.42 1.42 94 1011.9
20260509042911 21 207 0.0 4.8 0.00 1.42 1.42 94 1011.9
20260509041804 21 163 0.0 3.2 0.00 1.42 1.42 94 1012.0
20260509040904 21 191 0.0 3.2 0.00 1.42 1.42 94 1011.5
20260509040004 21 163 0.0 3.2 0.00 1.42 1.42 94 1011.3
20260509035403 21 177 0.0 3.2 0.00 1.42 1.42 94 1011.4
20260509034503 21 176 0.0 3.2 0.00 1.42 1.42 94 1011.7
20260509033604 21 164 0.0 1.6 0.00 1.42 1.42 94 1011.4
20260509032703 21 0 0.0 0.0 0.00 1.42 1.42 94 1011.4
20260509031803 21 132 0.0 1.6 0.00 1.42 1.42 94 1011.2
20260509030903 21 178 0.0 3.2 0.00 1.42 1.42 94 1011.1
20260509030003 21 164 0.0 3.2 0.00 1.42 1.42 94 1011.2
20260509025404 21 160 0.0 1.6 0.00 1.42 1.42 94 1011.0
20260509024503 21 168 0.0 3.2 0.00 1.42 1.42 94 1010.8
20260509023603 21 163 0.0 3.2 0.00 1.42 1.42 93 1010.5
20260509022704 21 153 0.0 4.8 0.00 1.42 1.42 93 1010.7
20260509021804 21 117 0.0 1.6 0.00 1.42 1.42 93 1010.7
20260509020904 21 0 0.0 0.0 0.00 1.42 1.42 92 1010.8
20260509020004 22 94 0.0 1.6 0.00 1.42 1.42 88 1010.5
20260509015404 22 333 0.0 1.6 0.00 1.42 1.42 88 1010.7
20260509014711 22 0 0.0 0.0 0.00 1.42 1.42 90 1010.5
20260509013604 21 0 0.0 0.0 0.00 1.42 1.42 90 1010.7
20260509012703 22 22 0.0 3.2 0.00 1.42 1.42 89 1010.6
20260509012011 22 128 0.0 1.6 0.00 1.42 1.42 88 1010.4
20260509010903 22 99 0.0 3.2 0.00 1.42 1.42 87 1010.8
20260509010004 22 58 0.0 3.2 0.00 1.42 1.42 87 1010.8
20260509005404 22 35 0.0 3.2 0.00 1.42 1.42 86 1010.6
20260509004504 22 68 0.0 3.2 0.00 1.42 1.42 85 1010.8
20260509003811 22 60 0.0 3.2 0.00 1.42 1.42 85 1010.8
20260509002704 23 58 0.0 1.6 0.00 1.42 1.42 84 1010.8
20260509001803 23 62 0.0 1.6 0.00 1.42 1.42 83 1011.0
20260509001111 23 93 0.0 3.2 0.00 1.42 1.42 82 1011.1
20260509000211 23 66 0.0 3.2 0.00 1.42 1.42 81 1010.9
20260508235403 23 127 0.0 3.2 0.00 1.42 1.42 79 1011.0
20260508234503 24 149 0.0 4.8 0.00 1.42 1.42 79 1011.0
20260508233604 23 69 0.0 4.8 0.00 1.42 1.42 79 1011.1
20260508232703 24 130 0.0 3.2 0.00 1.42 1.42 78 1011.0
20260508231803 24 78 0.0 4.8 0.00 1.42 1.42 79 1010.9
20260508230903 23 45 0.0 3.2 0.00 1.42 1.42 80 1010.8
20260508230004 23 43 0.0 4.8 0.00 1.42 1.42 81 1011.1
20260508225404 23 60 0.0 4.8 0.00 1.42 1.42 81 1011.1
20260508224503 23 85 0.0 4.8 0.00 1.42 1.42 82 1011.2
20260508223604 24 35 0.0 4.8 0.00 1.42 1.42 80 1010.9
20260508222703 23 48 1.6 6.4 0.00 1.42 1.42 82 1010.9
20260508221803 22 39 1.6 6.4 0.00 1.42 1.42 82 1011.1
20260508221111 23 55 1.6 4.8 0.00 1.42 1.42 81 1011.0
20260508220004 23 63 0.0 4.8 0.00 1.42 1.42 83 1011.1
20260508215404 23 58 0.0 3.2 0.00 1.42 1.42 82 1011.1
20260508214507 23 56 0.0 3.2 0.00 1.42 1.42 82 1011.1
20260508213603 23 1 0.0 3.2 0.00 1.42 1.42 80 1011.0
20260508212704 23 130 0.0 3.2 0.00 1.42 1.42 81 1011.2
20260508211803 23 42 0.0 3.2 0.00 1.42 1.42 83 1011.5
20260508210903 23 69 0.0 3.2 0.00 1.42 1.42 82 1011.5
20260508210004 23 39 0.0 3.2 0.00 1.42 1.42 81 1011.5
20260508205403 23 61 0.0 3.2 0.00 1.42 1.42 79 1011.7
20260508204504 23 9 0.0 3.2 0.00 1.42 1.42 77 1011.5
20260508203603 24 182 0.0 3.2 0.00 1.42 1.42 74 1011.9
20260508202703 24 214 0.0 3.2 0.00 1.42 1.42 75 1011.7
20260508201804 25 232 0.0 3.2 0.00 1.42 1.42 71 1011.8